QPF
0.00 0.00 0.00 0.00 0.00 0.00 0.00 0.00 0.00 0.00 0.00 0.00 0.00 0.00 0.00 0.00 0.00 0.00 0.00 0.00 0.00 0.00 0.00 0.00 0.00 0.00 0.00 0.00 0.01 0.04 0.07 0.10 0.11 0.12 0.09 0.10 0.08 0.08 0.07 0.08 0.08 0.11 0.13 0.16
0.00 0.00 0.00 0.00 0.00 0.00 0.00 0.00 0.00 0.00 0.00 0.00 0.00 0.00 0.00 0.00 0.00 0.00 0.00 0.00 0.00 0.00 0.00 0.00 0.00 0.00 0.00 0.01 0.03 0.07 0.11 0.15 0.16 0.17 0.16 0.15 0.16 0.11 0.11 0.12 0.12 0.11 0.13 0.16
0.00 0.00 0.00 0.00 0.00 0.00 0.00 0.00 0.00 0.00 0.00 0.00 0.00 0.00 0.00 0.00 0.00 0.00 0.00 0.00 0.00 0.00 0.00 0.00 0.01 0.01 0.01 0.02 0.03 0.06 0.11 0.14 0.17 0.20 0.20 0.16 0.17 0.11 0.13 0.17 0.16 0.15 0.15 0.16
0.00 0.00 0.00 0.00 0.00 0.00 0.00 0.00 0.00 0.00 0.00 0.00 0.00 0.00 0.00 0.00 0.00 0.00 0.00 0.00 0.00 0.00 0.00 0.01 0.01 0.02 0.01 0.01 0.01 0.03 0.07 0.11 0.13 0.17 0.19 0.16 0.16 0.13 0.16 0.23 0.22 0.18 0.15 0.17
0.00 0.00 0.00 0.00 0.00 0.00 0.00 0.00 0.00 0.00 0.00 0.00 0.00 0.00 0.00 0.00 0.00 0.00 0.00 0.01 0.00 0.00 0.01 0.01 0.01 0.01 0.01 0.00 0.01 0.02 0.04 0.06 0.08 0.10 0.12 0.12 0.11 0.12 0.14 0.19 0.18 0.15 0.14 0.13
0.00 0.00 0.00 0.00 0.00 0.00 0.00 0.00 0.00 0.00 0.00 0.00 0.00 0.00 0.00 0.00 0.00 0.00 0.00 0.01 0.00 0.00 0.00 0.00 0.00 0.00 0.00 0.00 0.00 0.01 0.02 0.03 0.05 0.07 0.08 0.08 0.08 0.11 0.13 0.15 0.16 0.17 0.16 0.13
0.00 0.00 0.00 0.00 0.00 0.00 0.00 0.00 0.00 0.00 0.00 0.00 0.01 0.01 0.00 0.00 0.00 0.00 0.00 0.00 0.00 0.00 0.00 0.00 0.00 0.00 0.00 0.00 0.00 0.00 0.01 0.02 0.03 0.04 0.06 0.06 0.07 0.09 0.10 0.13 0.15 0.18 0.17 0.15
0.00 0.00 0.00 0.00 0.00 0.00 0.00 0.00 0.00 0.00 0.00 0.00 0.00 0.00 0.00 0.00 0.00 0.00 0.00 0.00 0.00 0.00 0.00 0.00 0.00 0.00 0.00 0.00 0.00 0.00 0.00 0.01 0.01 0.03 0.04 0.05 0.07 0.08 0.09 0.12 0.14 0.18 0.19 0.18
0.00 0.00 0.00 0.00 0.00 0.00 0.00 0.00 0.00 0.00 0.00 0.00 0.00 0.00 0.00 0.00 0.00 0.00 0.00 0.00 0.00 0.00 0.00 0.00 0.00 0.00 0.00 0.00 0.00 0.00 0.00 0.01 0.01 0.02 0.03 0.04 0.06 0.08 0.10 0.12 0.14 0.18 0.20 0.20
0.00 0.00 0.00 0.00 0.00 0.00 0.00 0.00 0.00 0.00 0.00 0.00 0.00 0.00 0.00 0.00 0.00 0.00 0.00 0.00 0.00 0.00 0.00 0.00 0.00 0.00 0.00 0.00 0.00 0.00 0.00 0.01 0.02 0.02 0.03 0.03 0.06 0.08 0.12 0.14 0.16 0.18 0.21 0.22
0.00 0.00 0.00 0.00 0.00 0.00 0.00 0.00 0.00 0.00 0.00 0.00 0.00 0.00 0.00 0.00 0.00 0.00 0.00 0.00 0.00 0.00 0.00 0.00 0.00 0.00 0.00 0.00 0.00 0.00 0.01 0.01 0.02 0.02 0.03 0.05 0.08 0.12 0.14 0.17 0.20 0.23 0.26 0.28
0.00 0.00 0.00 0.00 0.00 0.00 0.00 0.00 0.00 0.00 0.00 0.00 0.00 0.00 0.00 0.00 0.00 0.00 0.00 0.00 0.00 0.00 0.00 0.00 0.00 0.00 0.00 0.00 0.00 0.00 0.01 0.01 0.02 0.02 0.03 0.05 0.08 0.13 0.18 0.21 0.24 0.27 0.30 0.30
0.00 0.00 0.00 0.00 0.00 0.00 0.00 0.00 0.00 0.00 0.00 0.00 0.00 0.00 0.00 0.00 0.00 0.00 0.00 0.00 0.00 0.00 0.00 0.00 0.00 0.00 0.00 0.00 0.00 0.00 0.00 0.01 0.01 0.02 0.04 0.05 0.07 0.13 0.17 0.18 0.19 0.20 0.22 0.23
0.00 0.00 0.00 0.00 0.00 0.00 0.00 0.00 0.00 0.00 0.00 0.00 0.00 0.00 0.00 0.00 0.00 0.00 0.00 0.00 0.00 0.00 0.00 0.00 0.00 0.00 0.00 0.00 0.00 0.00 0.00 0.01 0.02 0.03 0.04 0.06 0.08 0.12 0.16 0.17 0.15 0.15 0.17 0.20
0.00 0.00 0.00 0.00 0.00 0.00 0.00 0.00 0.00 0.00 0.00 0.00 0.00 0.00 0.00 0.00 0.00 0.00 0.00 0.00 0.00 0.00 0.00 0.00 0.00 0.00 0.00 0.00 0.01 0.01 0.01 0.01 0.03 0.04 0.04 0.08 0.11 0.12 0.13 0.15 0.14 0.14 0.13 0.12
0.00 0.00 0.00 0.00 0.00 0.00 0.00 0.00 0.00 0.00 0.00 0.00 0.00 0.00 0.00 0.00 0.00 0.00 0.00 0.00 0.00 0.00 0.00 0.00 0.00 0.00 0.00 0.01 0.01 0.01 0.01 0.02 0.03 0.04 0.05 0.07 0.10 0.12 0.12 0.11 0.11 0.10 0.09 0.08
0.00 0.00 0.00 0.00 0.00 0.00 0.00 0.00 0.00 0.00 0.00 0.00 0.00 0.00 0.00 0.00 0.00 0.00 0.00 0.00 0.00 0.00 0.00 0.00 0.00 0.00 0.00 0.00 0.01 0.02 0.02 0.03 0.04 0.05 0.06 0.08 0.09 0.11 0.12 0.09 0.07 0.06 0.05 0.05
0.00 0.00 0.00 0.00 0.00 0.00 0.00 0.00 0.00 0.00 0.00 0.00 0.00 0.00 0.00 0.00 0.00 0.00 0.00 0.00 0.00 0.00 0.00 0.00 0.00 0.00 0.00 0.00 0.01 0.02 0.04 0.05 0.05 0.07 0.09 0.11 0.10 0.10 0.10 0.07 0.06 0.06 0.06 0.05
0.00 0.00 0.00 0.00 0.00 0.00 0.00 0.00 0.00 0.00 0.00 0.00 0.00 0.00 0.00 0.00 0.00 0.00 0.00 0.00 0.00 0.00 0.00 0.00 0.00 0.00 0.00 0.00 0.00 0.01 0.03 0.04 0.05 0.08 0.10 0.11 0.11 0.10 0.09 0.08 0.08 0.08 0.07 0.06
0.00 0.00 0.00 0.00 0.00 0.01 0.00 0.00 0.00 0.00 0.00 0.00 0.00 0.00 0.00 0.00 0.00 0.00 0.00 0.00 0.00 0.00 0.00 0.00 0.00 0.00 0.00 0.00 0.00 0.00 0.01 0.04 0.06 0.07 0.08 0.08 0.10 0.11 0.11 0.11 0.10 0.09 0.07 0.06
0.00 0.00 0.00 0.00 0.01 0.00 0.00 0.00 0.00 0.01 0.02 0.00 0.00 0.00 0.00 0.01 0.01 0.00 0.00 0.00 0.00 0.00 0.00 0.00 0.00 0.00 0.00 0.00 0.00 0.01 0.01 0.03 0.04 0.05 0.06 0.08 0.09 0.11 0.12 0.13 0.12 0.09 0.06 0.06
0.00 0.00 0.00 0.00 0.01 0.01 0.00 0.00 0.01 0.02 0.01 0.00 0.00 0.00 0.01 0.01 0.00 0.00 0.00 0.00 0.00 0.00 0.00 0.00 0.01 0.00 0.01 0.01 0.01 0.01 0.01 0.02 0.02 0.04 0.06 0.07 0.09 0.07 0.07 0.09 0.10 0.10 0.09 0.07
0.00 0.00 0.00 0.00 0.01 0.01 0.00 0.00 0.01 0.01 0.01 0.01 0.01 0.01 0.01 0.01 0.01 0.01 0.01 0.01 0.01 0.01 0.01 0.02 0.02 0.02 0.02 0.02 0.01 0.01 0.01 0.01 0.02 0.05 0.08 0.09 0.09 0.10 0.11 0.10 0.08 0.08 0.07 0.07
0.00 0.00 0.00 0.01 0.00 0.00 0.00 0.00 0.00 0.00 0.00 0.01 0.01 0.01 0.01 0.01 0.02 0.02 0.02 0.01 0.02 0.02 0.02 0.02 0.02 0.03 0.04 0.04 0.03 0.02 0.01 0.01 0.03 0.05 0.08 0.10 0.11 0.11 0.12 0.12 0.10 0.08 0.08 0.07
0.00 0.00 0.01 0.02 0.02 0.01 0.01 0.01 0.00 0.00 0.00 0.00 0.00 0.01 0.01 0.02 0.02 0.02 0.02 0.02 0.03 0.03 0.03 0.03 0.05 0.06 0.07 0.09 0.08 0.04 0.02 0.02 0.03 0.05 0.07 0.08 0.09 0.11 0.12 0.12 0.11 0.10 0.11 0.08
0.00 0.01 0.02 0.03 0.02 0.02 0.02 0.01 0.00 0.00 0.00 0.01 0.01 0.01 0.01 0.01 0.02 0.02 0.02 0.02 0.03 0.04 0.06 0.08 0.09 0.11 0.11 0.10 0.10 0.07 0.03 0.02 0.03 0.04 0.06 0.07 0.08 0.09 0.09 0.10 0.06 0.04 0.05 0.02
MSLP
1009.79 1010.04 1010.14 1010.10 1009.96 1009.79 1009.62 1009.46 1009.33 1009.19 1009.02 1008.78 1008.47 1008.10 1007.70 1007.31 1006.99 1006.76 1006.64 1006.63 1006.69 1006.78 1006.85 1006.89 1006.88 1006.84 1006.80 1006.81 1006.91 1007.11 1007.41 1007.79 1008.19 1008.56 1008.86 1009.07 1009.18 1009.21 1009.20 1009.18 1009.21 1009.30 1009.46 1009.67
1010.13 1010.28 1010.30 1010.21 1010.08 1009.94 1009.84 1009.78 1009.73 1009.66 1009.52 1009.30 1008.97 1008.56 1008.11 1007.70 1007.38 1007.19 1007.14 1007.23 1007.40 1007.59 1007.75 1007.83 1007.82 1007.73 1007.60 1007.49 1007.44 1007.50 1007.68 1007.96 1008.29 1008.62 1008.89 1009.08 1009.16 1009.15 1009.08 1009.00 1008.95 1008.97 1009.07 1009.24
1010.35 1010.41 1010.35 1010.24 1010.13 1010.07 1010.08 1010.14 1010.20 1010.22 1010.13 1009.91 1009.55 1009.08 1008.57 1008.10 1007.74 1007.56 1007.56 1007.72 1007.99 1008.29 1008.55 1008.69 1008.70 1008.58 1008.39 1008.17 1008.00 1007.93 1007.98 1008.15 1008.39 1008.65 1008.87 1009.01 1009.05 1008.98 1008.84 1008.69 1008.56 1008.50 1008.54 1008.66
1010.47 1010.42 1010.31 1010.20 1010.15 1010.20 1010.35 1010.56 1010.76 1010.88 1010.85 1010.64 1010.23 1009.69 1009.08 1008.51 1008.08 1007.85 1007.84 1008.03 1008.36 1008.74 1009.08 1009.29 1009.34 1009.23 1009.01 1008.72 1008.46 1008.29 1008.23 1008.30 1008.45 1008.63 1008.79 1008.87 1008.85 1008.72 1008.51 1008.28 1008.07 1007.94 1007.90 1007.96
1010.48 1010.35 1010.20 1010.13 1010.16 1010.35 1010.65 1011.03 1011.38 1011.62 1011.65 1011.45 1011.00 1010.37 1009.64 1008.94 1008.38 1008.05 1007.97 1008.14 1008.47 1008.89 1009.28 1009.55 1009.66 1009.58 1009.36 1009.06 1008.76 1008.53 1008.40 1008.39 1008.47 1008.59 1008.69 1008.71 1008.63 1008.44 1008.17 1007.86 1007.57 1007.36 1007.25 1007.25
1010.43 1010.24 1010.09 1010.06 1010.19 1010.51 1010.98 1011.52 1012.02 1012.37 1012.47 1012.28 1011.79 1011.07 1010.22 1009.37 1008.66 1008.18 1007.98 1008.06 1008.34 1008.75 1009.16 1009.47 1009.63 1009.61 1009.43 1009.16 1008.87 1008.63 1008.48 1008.43 1008.47 1008.55 1008.61 1008.59 1008.46 1008.22 1007.89 1007.52 1007.16 1006.87 1006.69 1006.63
1010.38 1010.15 1010.01 1010.03 1010.26 1010.70 1011.30 1011.98 1012.61 1013.06 1013.22 1013.05 1012.53 1011.73 1010.77 1009.78 1008.91 1008.26 1007.91 1007.85 1008.04 1008.39 1008.78 1009.11 1009.32 1009.36 1009.26 1009.06 1008.83 1008.63 1008.50 1008.47 1008.50 1008.56 1008.60 1008.56 1008.40 1008.13 1007.76 1007.34 1006.92 1006.57 1006.32 1006.20
1010.36 1010.13 1010.02 1010.09 1010.38 1010.90 1011.59 1012.35 1013.06 1013.57 1013.78 1013.62 1013.10 1012.26 1011.21 1010.11 1009.10 1008.30 1007.79 1007.59 1007.65 1007.91 1008.26 1008.59 1008.84 1008.95 1008.94 1008.84 1008.70 1008.58 1008.52 1008.52 1008.58 1008.65 1008.69 1008.65 1008.49 1008.20 1007.81 1007.36 1006.91 1006.50 1006.20 1006.02
1010.43 1010.23 1010.14 1010.24 1010.56 1011.09 1011.80 1012.57 1013.29 1013.82 1014.05 1013.91 1013.39 1012.54 1011.47 1010.31 1009.21 1008.30 1007.66 1007.32 1007.27 1007.42 1007.71 1008.03 1008.31 1008.49 1008.58 1008.59 1008.56 1008.54 1008.56 1008.62 1008.73 1008.83 1008.88 1008.85 1008.69 1008.41 1008.02 1007.57 1007.09 1006.66 1006.32 1006.09
1010.59 1010.44 1010.38 1010.48 1010.77 1011.25 1011.89 1012.59 1013.25 1013.73 1013.95 1013.81 1013.32 1012.51 1011.47 1010.32 1009.20 1008.24 1007.52 1007.09 1006.93 1007.01 1007.23 1007.53 1007.83 1008.07 1008.25 1008.37 1008.46 1008.54 1008.64 1008.77 1008.92 1009.05 1009.13 1009.11 1008.97 1008.71 1008.34 1007.90 1007.43 1007.00 1006.64 1006.39
1010.86 1010.77 1010.72 1010.78 1010.99 1011.35 1011.84 1012.40 1012.92 1013.31 1013.46 1013.33 1012.87 1012.13 1011.18 1010.11 1009.04 1008.11 1007.38 1006.90 1006.68 1006.69 1006.87 1007.14 1007.45 1007.74 1008.00 1008.21 1008.39 1008.57 1008.75 1008.93 1009.12 1009.27 1009.36 1009.36 1009.24 1009.01 1008.67 1008.27 1007.84 1007.43 1007.08 1006.83
1011.19 1011.16 1011.11 1011.11 1011.20 1011.39 1011.68 1012.02 1012.35 1012.60 1012.67 1012.52 1012.11 1011.47 1010.63 1009.69 1008.75 1007.89 1007.21 1006.74 1006.49 1006.46 1006.60 1006.85 1007.16 1007.49 1007.80 1008.08 1008.34 1008.59 1008.83 1009.05 1009.26 1009.42 1009.52 1009.53 1009.43 1009.23 1008.94 1008.59 1008.21 1007.86 1007.55 1007.33
1011.52 1011.54 1011.49 1011.42 1011.37 1011.36 1011.42 1011.53 1011.65 1011.73 1011.70 1011.52 1011.16 1010.62 1009.94 1009.16 1008.36 1007.63 1007.02 1006.59 1006.35 1006.29 1006.40 1006.62 1006.93 1007.26 1007.61 1007.94 1008.26 1008.55 1008.82 1009.07 1009.28 1009.45 1009.54 1009.56 1009.48 1009.32 1009.09 1008.80 1008.50 1008.22 1007.98 1007.81
1011.77 1011.84 1011.79 1011.65 1011.47 1011.29 1011.14 1011.03 1010.94 1010.85 1010.73 1010.52 1010.20 1009.77 1009.23 1008.61 1007.97 1007.37 1006.85 1006.46 1006.22 1006.14 1006.21 1006.40 1006.68 1007.01 1007.36 1007.72 1008.07 1008.39 1008.68 1008.94 1009.16 1009.32 1009.41 1009.43 1009.38 1009.27 1009.10 1008.89 1008.68 1008.49 1008.33 1008.24
1011.89 1012.00 1011.95 1011.78 1011.52 1011.21 1010.89 1010.61 1010.36 1010.15 1009.94 1009.72 1009.44 1009.10 1008.68 1008.20 1007.69 1007.19 1006.74 1006.38 1006.13 1006.01 1006.02 1006.15 1006.38 1006.68 1007.02 1007.38 1007.73 1008.07 1008.38 1008.65 1008.86 1009.03 1009.13 1009.17 1009.15 1009.08 1008.98 1008.87 1008.75 1008.65 1008.59 1008.57
1011.85 1011.99 1011.97 1011.80 1011.51 1011.14 1010.75 1010.38 1010.05 1009.76 1009.51 1009.28 1009.04 1008.77 1008.44 1008.06 1007.63 1007.19 1006.77 1006.39 1006.09 1005.90 1005.83 1005.87 1006.02 1006.25 1006.55 1006.89 1007.24 1007.59 1007.91 1008.19 1008.42 1008.59 1008.72 1008.78 1008.81 1008.81 1008.79 1008.76 1008.73 1008.73 1008.76 1008.82
1011.65 1011.83 1011.86 1011.74 1011.49 1011.16 1010.78 1010.41 1010.07 1009.78 1009.53 1009.32 1009.11 1008.88 1008.61 1008.27 1007.87 1007.43 1006.98 1006.54 1006.15 1005.85 1005.65 1005.57 1005.61 1005.76 1005.99 1006.29 1006.62 1006.97 1007.30 1007.59 1007.85 1008.05 1008.21 1008.33 1008.41 1008.48 1008.53 1008.59 1008.66 1008.75 1008.86 1008.99
1011.35 1011.58 1011.69 1011.66 1011.53 1011.30 1011.03 1010.74 1010.47 1010.23 1010.03 1009.85 1009.67 1009.46 1009.20 1008.85 1008.43 1007.94 1007.41 1006.86 1006.34 1005.89 1005.53 1005.31 1005.21 1005.24 1005.39 1005.62 1005.92 1006.25 1006.59 1006.90 1007.19 1007.44 1007.65 1007.82 1007.98 1008.12 1008.25 1008.39 1008.55 1008.71 1008.89 1009.09
1011.06 1011.34 1011.54 1011.66 1011.67 1011.61 1011.49 1011.35 1011.20 1011.05 1010.92 1010.78 1010.62 1010.41 1010.12 1009.73 1009.24 1008.66 1008.01 1007.33 1006.66 1006.04 1005.52 1005.12 1004.87 1004.77 1004.81 1004.96 1005.21 1005.51 1005.84 1006.18 1006.49 1006.79 1007.05 1007.29 1007.52 1007.73 1007.95 1008.17 1008.39 1008.62 1008.86 1009.11
1010.89 1011.23 1011.54 1011.79 1011.98 1012.10 1012.16 1012.17 1012.15 1012.11 1012.04 1011.93 1011.77 1011.53 1011.19 1010.73 1010.16 1009.47 1008.70 1007.88 1007.06 1006.29 1005.60 1005.05 1004.65 1004.41 1004.33 1004.38 1004.56 1004.81 1005.12 1005.46 1005.80 1006.13 1006.44 1006.75 1007.04 1007.32 1007.61 1007.90 1008.19 1008.48 1008.77 1009.05
1010.94 1011.34 1011.75 1012.14 1012.47 1012.75 1012.96 1013.10 1013.18 1013.21 1013.17 1013.07 1012.89 1012.60 1012.19 1011.66 1011.00 1010.22 1009.35 1008.42 1007.48 1006.58 1005.77 1005.08 1004.55 1004.18 1003.98 1003.94 1004.02 1004.21 1004.48 1004.80 1005.14 1005.49 1005.84 1006.19 1006.54 1006.89 1007.24 1007.58 1007.93 1008.27 1008.61 1008.93
1011.29 1011.75 1012.23 1012.71 1013.14 1013.52 1013.81 1014.02 1014.15 1014.18 1014.13 1013.99 1013.75 1013.39 1012.92 1012.31 1011.58 1010.74 1009.82 1008.83 1007.84 1006.87 1005.98 1005.20 1004.57 1004.10 1003.80 1003.65 1003.64 1003.75 1003.95 1004.23 1004.54 1004.89 1005.26 1005.64 1006.03 1006.42 1006.82 1007.22 1007.62 1008.01 1008.39 1008.76
1011.94 1012.43 1012.96 1013.47 1013.94 1014.33 1014.62 1014.81 1014.89 1014.87 1014.74 1014.51 1014.18 1013.74 1013.20 1012.54 1011.78 1010.93 1010.00 1009.03 1008.04 1007.07 1006.17 1005.36 1004.68 1004.15 1003.76 1003.52 1003.41 1003.43 1003.56 1003.77 1004.04 1004.36 1004.72 1005.10 1005.51 1005.94 1006.38 1006.83 1007.27 1007.71 1008.14 1008.55
1012.83 1013.35 1013.87 1014.36 1014.77 1015.09 1015.29 1015.36 1015.32 1015.16 1014.90 1014.54 1014.10 1013.58 1012.97 1012.29 1011.54 1010.73 1009.86 1008.95 1008.04 1007.14 1006.29 1005.51 1004.83 1004.26 1003.82 1003.51 1003.32 1003.25 1003.28 1003.41 1003.61 1003.89 1004.21 1004.59 1005.00 1005.45 1005.92 1006.40 1006.89 1007.38 1007.86 1008.32
1013.89 1014.39 1014.86 1015.26 1015.54 1015.71 1015.74 1015.63 1015.39 1015.04 1014.61 1014.10 1013.53 1012.92 1012.28 1011.60 1010.89 1010.15 1009.39 1008.61 1007.82 1007.04 1006.29 1005.58 1004.94 1004.38 1003.92 1003.56 1003.30 1003.14 1003.09 1003.13 1003.26 1003.46 1003.75 1004.09 1004.50 1004.95 1005.44 1005.96 1006.49 1007.02 1007.56 1008.07
1014.96 1015.42 1015.80 1016.05 1016.16 1016.11 1015.92 1015.58 1015.11 1014.56 1013.93 1013.27 1012.59 1011.92 1011.25 1010.60 1009.96 1009.32 1008.69 1008.06 1007.42 1006.78 1006.15 1005.55 1004.98 1004.45 1003.98 1003.59 1003.27 1003.04 1002.91 1002.87 1002.91 1003.06 1003.28 1003.59 1003.97 1004.42 1004.93 1005.47 1006.04 1006.62 1007.21 1007.78
Thickness
5795 5785 5784 5798 5803 5800 5798 5799 5803 5819 5835 5815 5802 5804 5821 5834 5827 5821 5819 5818 5813 5811 5815 5818 5818 5818 5816 5813 5811 5808 5804 5800 5796 5791 5788 5785 5783 5785 5785 5785 5785 5784 5781 5778
5786 5780 5796 5800 5799 5795 5792 5788 5793 5809 5822 5808 5795 5797 5814 5824 5820 5815 5808 5803 5800 5797 5797 5798 5799 5799 5798 5796 5796 5795 5791 5788 5786 5783 5781 5780 5778 5778 5779 5779 5778 5777 5774 5771
5778 5785 5797 5793 5789 5785 5787 5788 5789 5791 5800 5802 5791 5787 5803 5819 5818 5810 5803 5796 5792 5786 5782 5783 5782 5782 5783 5782 5781 5782 5779 5778 5776 5774 5773 5771 5770 5769 5769 5769 5768 5769 5768 5765
5782 5794 5788 5783 5785 5785 5776 5792 5787 5780 5772 5769 5779 5763 5792 5810 5803 5797 5789 5784 5781 5778 5774 5771 5771 5769 5769 5770 5772 5771 5769 5767 5766 5765 5762 5759 5756 5755 5759 5760 5761 5761 5760 5758
5777 5786 5781 5776 5783 5784 5778 5786 5780 5775 5767 5762 5772 5763 5782 5807 5791 5784 5778 5773 5772 5770 5767 5764 5762 5760 5761 5761 5761 5761 5759 5756 5756 5754 5752 5750 5749 5749 5751 5752 5752 5751 5751 5751
5780 5792 5788 5783 5789 5788 5784 5776 5773 5774 5767 5748 5762 5755 5760 5782 5779 5776 5772 5769 5766 5765 5763 5760 5758 5756 5754 5754 5753 5751 5748 5746 5746 5744 5743 5741 5739 5739 5738 5739 5739 5740 5741 5742
5764 5779 5792 5792 5776 5780 5774 5754 5739 5740 5745 5743 5756 5744 5758 5780 5786 5779 5771 5767 5765 5761 5758 5754 5751 5749 5746 5745 5744 5743 5740 5737 5737 5735 5734 5732 5731 5730 5728 5728 5728 5728 5729 5730
5745 5750 5776 5784 5774 5762 5763 5753 5728 5715 5722 5740 5758 5755 5775 5786 5784 5779 5773 5767 5762 5757 5754 5750 5748 5745 5742 5740 5737 5735 5732 5729 5728 5726 5724 5723 5722 5720 5720 5719 5718 5718 5718 5719
5745 5747 5777 5783 5783 5772 5755 5752 5759 5739 5734 5731 5750 5768 5769 5774 5769 5765 5763 5760 5756 5752 5749 5746 5744 5741 5737 5734 5731 5728 5724 5721 5719 5717 5715 5714 5712 5709 5708 5707 5707 5706 5706 5706
5761 5745 5765 5780 5782 5778 5769 5762 5749 5731 5711 5708 5729 5744 5746 5749 5752 5755 5753 5752 5751 5749 5746 5742 5738 5735 5731 5728 5724 5721 5717 5713 5711 5708 5705 5704 5701 5698 5696 5694 5692 5692 5691 5691
5768 5747 5753 5765 5759 5757 5761 5755 5747 5738 5730 5709 5703 5726 5765 5757 5754 5750 5750 5750 5747 5744 5741 5736 5732 5728 5724 5720 5716 5712 5708 5705 5701 5698 5695 5691 5689 5686 5683 5680 5678 5676 5675 5674
5764 5753 5741 5753 5774 5780 5767 5755 5744 5721 5717 5720 5710 5724 5769 5762 5757 5752 5747 5746 5745 5741 5737 5733 5727 5721 5715 5710 5706 5703 5699 5695 5691 5688 5684 5681 5677 5674 5670 5667 5664 5662 5659 5658
5755 5737 5721 5734 5750 5759 5753 5754 5750 5742 5729 5718 5708 5724 5765 5760 5755 5751 5745 5742 5739 5735 5731 5726 5720 5713 5707 5702 5698 5694 5691 5686 5683 5679 5675 5671 5667 5662 5658 5655 5651 5649 5648 5646
5758 5736 5721 5713 5726 5742 5743 5750 5754 5744 5726 5722 5725 5732 5748 5750 5747 5745 5742 5738 5734 5730 5725 5719 5713 5707 5702 5696 5691 5687 5683 5679 5675 5670 5666 5662 5657 5653 5649 5645 5642 5639 5637 5636
5758 5736 5736 5739 5745 5748 5747 5749 5751 5745 5740 5728 5730 5732 5738 5740 5739 5738 5736 5732 5727 5723 5719 5713 5707 5702 5696 5691 5686 5681 5676 5672 5668 5663 5659 5655 5651 5646 5642 5637 5634 5631 5629 5628
5755 5737 5734 5732 5742 5746 5745 5751 5751 5747 5743 5735 5730 5726 5737 5737 5734 5729 5726 5722 5717 5714 5712 5709 5704 5697 5691 5686 5681 5676 5671 5666 5662 5657 5653 5650 5645 5641 5635 5631 5627 5624 5623 5621
5746 5733 5722 5721 5735 5735 5729 5745 5744 5739 5737 5725 5711 5713 5722 5718 5714 5713 5713 5712 5710 5709 5706 5702 5698 5692 5687 5682 5677 5671 5666 5662 5657 5653 5650 5646 5642 5637 5631 5627 5623 5620 5618 5616
5743 5728 5719 5717 5718 5704 5734 5753 5746 5734 5722 5714 5708 5707 5705 5702 5704 5708 5708 5703 5700 5700 5699 5696 5693 5688 5684 5679 5674 5668 5663 5658 5653 5649 5646 5643 5639 5634 5629 5624 5620 5617 5615 5613
5748 5726 5714 5711 5708 5717 5733 5729 5725 5715 5703 5694 5692 5690 5692 5693 5694 5697 5699 5694 5691 5690 5690 5690 5689 5685 5680 5674 5669 5663 5658 5654 5650 5646 5643 5641 5637 5633 5627 5622 5618 5615 5612 5610
5742 5728 5712 5706 5693 5688 5697 5715 5722 5711 5691 5679 5678 5674 5674 5674 5663 5670 5681 5682 5682 5683 5684 5684 5684 5680 5675 5670 5665 5657 5652 5649 5646 5645 5643 5640 5636 5631 5626 5621 5617 5614 5610 5608
5723 5713 5703 5696 5689 5696 5688 5700 5702 5672 5654 5664 5665 5661 5657 5651 5649 5657 5665 5668 5671 5673 5675 5677 5676 5672 5669 5666 5659 5652 5648 5645 5645 5644 5641 5638 5634 5629 5625 5620 5616 5612 5609 5606
5722 5711 5704 5698 5683 5674 5676 5677 5656 5643 5649 5648 5646 5644 5641 5641 5643 5646 5648 5649 5653 5657 5661 5664 5662 5663 5664 5661 5654 5648 5644 5643 5642 5641 5638 5634 5631 5628 5625 5618 5614 5611 5607 5603
5720 5712 5706 5693 5672 5660 5658 5649 5641 5638 5633 5632 5630 5628 5627 5625 5625 5627 5629 5631 5634 5636 5640 5644 5648 5651 5654 5654 5650 5645 5643 5640 5637 5635 5633 5631 5628 5625 5623 5617 5612 5608 5605 5602
5710 5707 5696 5680 5658 5652 5643 5636 5630 5625 5620 5618 5615 5613 5611 5609 5609 5610 5612 5614 5616 5618 5621 5625 5630 5635 5639 5642 5644 5642 5640 5637 5632 5630 5628 5626 5624 5622 5619 5615 5612 5608 5605 5602
5674 5679 5672 5659 5639 5637 5632 5621 5615 5611 5608 5605 5603 5601 5598 5596 5595 5595 5596 5598 5599 5601 5604 5607 5611 5616 5623 5629 5634 5637 5637 5633 5628 5625 5624 5623 5621 5619 5616 5613 5610 5608 5607 5606
5644 5637 5633 5621 5612 5607 5605 5603 5599 5594 5592 5590 5588 5587 5586 5582 5580 5580 5580 5581 5583 5585 5589 5592 5596 5600 5607 5615 5621 5629 5631 5629 5625 5621 5620 5619 5618 5617 5614 5610 5605 5600 5602 5600